Raleigh-Durham Airport, NC

11:28 PM EDT on September 22, 2017 (GMT -0400)
Raleigh-Durham International

Weather History for KRDU - July, 2013

Change the Weather History Date:

Friday, July 5, 2013

  Actual Average Record
Temperature  
Mean Temperature 81 °F 80 °F  
Max Temperature 89 °F 90 °F 102 °F (1999)
Min Temperature 72 °F 70 °F 54 °F (1996)
Degree Days  
Heating Degree Days 0 0  
Month to date heating degree days 0 0  
Since 1 June heating degree days 0 4  
Since 1 July heating degree days 0 0  
Cooling Degree Days 16 15  
Month to date cooling degree days 67 75  
Year to date cooling degree days 576 631  
Since 1 June cooling degree days 398 422  
Growing Degree Days 31 (Base 50)    
Moisture  
Dew Point 71 °F    
Average Humidity 74    
Maximum Humidity 93    
Minimum Humidity 55    
Precipitation  
Precipitation 0.00 in 0.13 in 3.26 in (1941)
Month to date precipitation 1.02 0.66  
Year to date precipitation 30.13 21.21  
Sea Level Pressure  
Sea Level Pressure 30.24 in    
Wind  
Wind Speed 8 mph (South)    
Max Wind Speed 14 mph    
Max Gust Speed 20 mph    
Visibility 9 miles    
Events      
T = Trace of Precipitation, MM = Missing Value Source: NWS Daily Summary

Daily Weather History Graph

Daily Weather History Graph

Search for Another Location

Airport or City:

Trip Planner

Search our weather history database for the weather conditions in past years. The results will help you decide how hot, cold, wet, or windy it might be!

Date:

Astronomy

Jul. 05, 2013 Rise Set
Actual Time 6:04 AM EDT 8:34 PM EDT
Civil Twilight 5:34 AM EDT 9:04 PM EDT
Nautical Twilight 4:57 AM EDT 9:41 PM EDT
Astronomical Twilight 4:16 AM EDT 10:22 PM EDT
Moon 4:00 AM EDT (7/5) 6:30 PM EDT (7/5)
Length of Visible Light 15h 30m
Length of Day
14h 30m
Waning Crescent, 6% of the Moon is Illuminated
Jul 5
Waning Crescent
Jul 8
New
Jul 15
First Quarter
Jul 22
Full
Jul 29
Last Quarter

Hourly Weather History & Observations

Time (EDT) Temp. Heat Index Dew Point Humidity Pressure Visibility Wind Dir Wind Speed Gust Speed Precip Events Conditions
12:51 AM 73.9 °F - 69.1 °F 85% 30.26 in 10.0 mi South 4.6 mph - N/A   Scattered Clouds
1:51 AM 73.9 °F - 70.0 °F 87% 30.25 in 10.0 mi South 6.9 mph - N/A   Scattered Clouds
2:51 AM 73.0 °F - 70.0 °F 90% 30.24 in 10.0 mi SSE 3.5 mph - N/A   Scattered Clouds
3:22 AM 73.4 °F - 69.8 °F 88% 30.25 in 10.0 mi SSE 3.5 mph - N/A   Mostly Cloudy
3:51 AM 73.0 °F - 70.0 °F 90% 30.23 in 9.0 mi South 3.5 mph - N/A   Mostly Cloudy
4:51 AM 73.0 °F - 71.1 °F 93% 30.24 in 9.0 mi South 5.8 mph - N/A   Mostly Cloudy
5:51 AM 73.0 °F - 71.1 °F 93% 30.25 in 3.0 mi South 4.6 mph - N/A   Mostly Cloudy
6:51 AM 73.9 °F - 71.1 °F 91% 30.25 in 3.0 mi SSW 6.9 mph - N/A   Overcast
7:51 AM 75.9 °F - 72.0 °F 87% 30.27 in 10.0 mi South 5.8 mph - N/A   Overcast
8:12 AM 75.2 °F - 71.6 °F 89% 30.28 in 10.0 mi South 6.9 mph - N/A   Overcast
8:51 AM 77.0 °F - 72.0 °F 84% 30.28 in 10.0 mi SSW 10.4 mph - N/A   Mostly Cloudy
9:51 AM 81.0 °F 85.8 °F 73.0 °F 77% 30.28 in 10.0 mi SSW 9.2 mph - N/A   Mostly Cloudy
10:51 AM 81.0 °F 85.2 °F 72.0 °F 74% 30.28 in 10.0 mi SW 8.1 mph - N/A   Scattered Clouds
11:51 AM 86.0 °F 93.0 °F 73.0 °F 65% 30.27 in 10.0 mi Variable 5.8 mph - N/A   Scattered Clouds
12:51 PM 87.1 °F 92.0 °F 70.0 °F 57% 30.26 in 10.0 mi South 10.4 mph - N/A   Scattered Clouds
1:51 PM 87.1 °F 92.0 °F 70.0 °F 57% 30.24 in 10.0 mi SSE 9.2 mph - N/A   Scattered Clouds
2:51 PM 88.0 °F 92.9 °F 70.0 °F 55% 30.22 in 10.0 mi SSE 10.4 mph - N/A   Mostly Cloudy
3:51 PM 88.0 °F 93.8 °F 71.1 °F 57% 30.20 in 10.0 mi SSE 8.1 mph - N/A   Mostly Cloudy
4:51 PM 87.1 °F 91.3 °F 69.1 °F 55% 30.19 in 10.0 mi SSE 6.9 mph - N/A   Mostly Cloudy
5:51 PM 87.1 °F 92.8 °F 71.1 °F 59% 30.17 in 10.0 mi SSE 10.4 mph - N/A   Mostly Cloudy
6:51 PM 86.0 °F 92.2 °F 72.0 °F 63% 30.18 in 10.0 mi SSW 9.2 mph - N/A   Mostly Cloudy
7:51 PM 82.0 °F 86.3 °F 71.1 °F 69% 30.19 in 10.0 mi South 6.9 mph - N/A   Mostly Cloudy
8:51 PM 81.0 °F 84.4 °F 70.0 °F 69% 30.20 in 10.0 mi South 8.1 mph - N/A   Mostly Cloudy
9:51 PM 79.0 °F - 71.1 °F 77% 30.22 in 10.0 mi South 4.6 mph - N/A   Scattered Clouds
10:51 PM 79.0 °F - 72.0 °F 79% 30.24 in 10.0 mi SSW 9.2 mph - N/A   Mostly Cloudy
11:51 PM 78.1 °F - 71.1 °F 79% 30.24 in 10.0 mi SSW 10.4 mph - N/A   Scattered Clouds